Location: Gorze? G�rny
(49.8500°N, 19.5000°E)
Time: 05:06:45
(UTC+00:00)

IGS 5A - Pass Details

Date: 13 May 2021
Orbit: 583 x 588 km, 97.6° (Epoch: 06 May)

Event Time Altitude Azimuth Distance (km) Brightness Sun altitude
Exits shadow 19:01:26 - 158° (SSE) 2,326 6.0 -6.5°
Reaches altitude 10° 19:02:27 10° 156° (SSE) 1,902 5.5 -6.7°
Maximum altitude 19:06:33 69° 74° (ENE) 630 3.5 -7.2°
Drops below altitude 10° 19:10:41 10° 351° (N) 1,919 6.9 -7.7°
Sets 19:12:52 0° 349° (N) 2,825 7.9 -7.9°
